HELSINKI/VANTAA current weather conditions

sailwx.info

Wind from 240 at 12 knots

Air temperature 3.0° C
Visibility: greater than 5.4 NM
Dewpoint 2.0° C

Last reported at 2020-Jan-26 06:50 UTC.
Time now 2020-Jan-26 07:52 UTC

Location: N 60°19' E 024°58'.
View on Google Maps.

See reports from other nearby stations

  
Tides and Currents Weather Stations Pressure Air Temp Water Temp Dewpoint Dewpoint Depression Visibility Wind Speed Wind Dir Waves Ship Positions
date/time (UTC)wind fromknots sea level pressurealtimeterstation pressurevisibilityair tempwater tempwave heightnotes
2020-Jan-26 06:50 240 12 5.4 3.0
2020-Jan-26 06:20 240 11 5.4 3.0 Light drizzle.
2020-Jan-26 05:50 240 11 3.8 3.0 Light drizzle.
2020-Jan-26 05:20 250 11 3.8 3.0 Light drizzle.
2020-Jan-26 04:50 230 9 3.8 3.0 Light drizzle.
2020-Jan-26 04:20 220 11 2.4 3.0 Light drizzle.
2020-Jan-26 03:50 190 11 5.4 3.0 Light rain drizzle.
2020-Jan-26 03:20 180 13 5.4 2.0 Light rain.
2020-Jan-26 02:50 180 13 5.4 2.0 Light drizzle snow.
2020-Jan-26 02:20 180 8 5.4 1.0 Light drizzle snow.
2020-Jan-26 01:50 180 8 1.6-0.0 Light snow.
2020-Jan-26 01:20 190 9 1.5-0.0 Light snow.
2020-Jan-26 00:50 180 6 5.4-1.0
2020-Jan-26 00:20 200 4 5.4-1.0
2020-Jan-25 23:50 5.4-1.0 Light snow.
2020-Jan-25 23:20 240 4 5.4-1.0
2020-Jan-25 22:50 220 4 5.4-1.0
2020-Jan-25 22:20 250 6 5.4-1.0 Light snow.
2020-Jan-25 21:50 240 5 5.4-2.0
2020-Jan-25 21:20 240 4 5.4-3.0
2020-Jan-25 20:50 250 6 5.4-2.0
2020-Jan-25 20:20 260 6 5.4-2.0
2020-Jan-25 19:50 260 6 5.4-2.0
2020-Jan-25 19:20 260 6 5.4-2.0
2020-Jan-25 18:50 260 7 5.4-1.0
2020-Jan-25 18:20 260 8 5.4-1.0
2020-Jan-25 17:50 260 7 5.4-1.0
2020-Jan-25 17:20 260 8 5.4-1.0
2020-Jan-25 16:50 270 6 5.4-1.0
2020-Jan-25 16:20 270 8 5.4-1.0
2020-Jan-25 15:50 270 8 5.4-1.0
2020-Jan-25 15:20 260 7 5.4-1.0
2020-Jan-25 14:50 270 6 5.4-0.0
2020-Jan-25 14:20 290 11 5.4-0.0
2020-Jan-25 13:50 290 13 5.4 1.0
2020-Jan-25 13:20 290 12 5.4 1.0
2020-Jan-25 12:50 290 13 5.4 1.0
2020-Jan-25 12:20 290 12 5.4 2.0
2020-Jan-25 11:50 290 15 gusting 26 5.4 2.0
2020-Jan-25 11:20 290 15 5.4 2.0
2020-Jan-25 10:50 290 19 gusting 31 5.4 2.0
2020-Jan-25 10:20 290 18 5.4 2.0
2020-Jan-25 09:50 290 17 5.4 2.0
2020-Jan-25 09:20 290 17 5.4 1.0
2020-Jan-25 08:50 280 14 5.4 1.0
2020-Jan-25 08:20 280 14 5.4 1.0
2020-Jan-25 07:50 280 13 5.4-0.0
2020-Jan-25 07:20 280 12 5.4-0.0
2020-Jan-25 06:50 280 12 5.4-0.0
2020-Jan-25 06:20 280 14 5.4-0.0
2020-Jan-25 05:50 280 13 5.4-0.0
2020-Jan-25 05:20 280 13 5.4-0.0
2020-Jan-25 04:50 290 13 5.4-0.0
2020-Jan-25 04:20 280 13 5.4-0.0
2020-Jan-25 03:50 280 13 5.4-0.0
2020-Jan-25 03:20 280 13 5.4-0.0
2020-Jan-25 02:50 290 13 5.4-0.0
2020-Jan-25 02:20 290 9 5.4-0.0
2020-Jan-25 01:50 280 11 5.4-0.0
2020-Jan-25 01:20 270 11 5.4 1.0
2020-Jan-25 00:50 260 11 5.4-0.0
2020-Jan-25 00:20 260 8 5.4-0.0
2020-Jan-24 23:50 250 7 5.4 1.0
2020-Jan-24 23:20 250 7 5.4-0.0
2020-Jan-24 22:50 250 7 5.4 1.0
2020-Jan-24 22:20 240 7 5.4-0.0
2020-Jan-24 21:50 240 7 5.4-0.0
2020-Jan-24 21:20 230 8 5.4-1.0
2020-Jan-24 20:50 220 6 5.4-1.0
2020-Jan-24 20:20 230 6 5.4-1.0
2020-Jan-24 19:50 220 6 5.4-2.0
2020-Jan-24 19:20 240 6 5.4-1.0
2020-Jan-24 18:50 260 7 5.4-0.0
2020-Jan-24 18:20 250 7 5.4-0.0
2020-Jan-24 17:50 250 6 5.4-0.0
2020-Jan-24 17:20 240 6 5.4-1.0
2020-Jan-24 16:50 240 6 5.4-1.0
2020-Jan-24 16:20 240 6 5.4-1.0
2020-Jan-24 15:50 250 6 5.4 1.0
2020-Jan-24 15:20 240 7 5.4 1.0
2020-Jan-24 14:50 250 6 5.4 1.0
2020-Jan-24 14:20 270 8 5.4 2.0
2020-Jan-24 13:50 260 11 5.4 3.0
2020-Jan-24 13:20 260 9 5.4 3.0
2020-Jan-24 12:50 260 11 5.4 3.0 Showers in the vicinity.
2020-Jan-24 12:20 250 11 5.4 3.0 Showers in the vicinity.
2020-Jan-24 11:50 270 11 5.4 3.0 Light rain.
2020-Jan-24 11:20 300 14 5.4 3.0 Light rain.
2020-Jan-24 10:50 280 7 5.4 3.0 Light rain.
2020-Jan-24 10:20 300 6 5.4 3.0
2020-Jan-24 09:50 270 7 5.4 3.0
2020-Jan-24 09:20 270 6 5.4 3.0
2020-Jan-24 08:50 260 7 5.4 2.0
2020-Jan-24 08:20 250 6 5.4 2.0
2020-Jan-24 07:50 250 6 5.4 2.0
2020-Jan-24 07:20 250 7 5.4 1.0